Regional Weather Roundup
Issued by NWS

Home | Current Version | Previous Version | Graphics & Text | Print | Product List | Glossary On
Versions: 1 2 3 4 5 6 7 8 9 10 11 12 13 14 15 16 17 18 19 20 21 22 23 24 25 26 27 28 29 30 31 32 33 34 35 36 37 38 39 40 41 42 43 44 45 46 47 48 49 50
421
ASUS43 KTOP 010908
RWRKS

WEATHER ROUNDUP FOR KANSAS
NATIONAL WEATHER SERVICE GOODLAND KS
400 AM CDT SAT OCT 01 2016

NOTE:  "FAIR" INDICATES FEW OR NO CLOUDS BELOW 12,000 FEET WITH NO
SIGNIFICANT WEATHER AND/OR OBSTRUCTIONS TO VISIBILITY.

KSZ001>006-013>018-027>032-041>047-011000-
NORTHWEST KANSAS

CITY           SKY/WX    TMP DP  RH WIND       PRES   REMARKS
GOODLAND       CLOUDY    50  44  80 S9        30.12F
HAYS           CLOUDY    50  37  62 E7        30.13F
HILL CITY      CLEAR     47  44  90 CALM      30.14F
RUSSELL        CLOUDY    53  48  83 E7        30.12F
$$

KSZ061>065-074>080-084>089-011000-
SOUTHWEST KANSAS

CITY           SKY/WX    TMP DP  RH WIND       PRES   REMARKS
DODGE CITY     PTCLDY    57  47  69 SE8       30.11F
ELKHART          N/A     54  44  69 S12         N/A
GARDEN CITY    PTCLDY    57  46  66 SE9       30.09F
GREAT BEND     PTCLDY    54  43  66 E5        30.13F
LIBERAL        MOCLDY    61  46  59 SE10      30.09F
PRATT          CLOUDY    56  45  66 CALM      30.13F
$$

KSZ066>073-081>083-090>101-011000-
SOUTHEAST KANSAS

CITY           SKY/WX    TMP DP  RH WIND       PRES   REMARKS
CHANUTE        MOCLDY    53  50  89 CALM      30.11F
COFFEYVILLE    CLOUDY    54  52  93 CALM      30.12R
HUTCHINSON     CLEAR     50  48  93 CALM      30.14S
MEDICINE LODGE   N/A     55  51  86 CALM      30.12F
NEWTON         PTCLDY    55  48  77 SE5       30.13F
PARSONS        CLOUDY    51  50  96 CALM      30.12S
WICHITA INTL   CLOUDY    52  50  93 CALM      30.12F
WICHITA JABRA  CLEAR     50  50 100 NE3       30.12F
WICHITA MCCONL CLEAR     57  48  71 E2        30.12F
WINFIELD       PTCLDY    54  51  90 CALM      30.13F
$$

KSZ007>012-019>026-033>040-048>060-102>105-011000-
NORTHEAST KANSAS

CITY           SKY/WX    TMP DP  RH WIND       PRES   REMARKS
CONCORDIA      PTCLDY    53  49  86 CALM      30.14F
EMPORIA        CLOUDY    52  51  97 CALM      30.12F
LAWRENCE       CLEAR     49  49 100 NW5       30.12F
MANHATTAN      CLOUDY    50  49  96 CALM      30.13S
MARYSVILLE     MOCLDY    46  46 100 CALM      30.14S
OLATHE IND     CLEAR     53  51  93 CALM      30.12F
OLATHE EXE     CLEAR     54  52  93 NW3       30.12S
SALINA         PTCLDY    50  46  86 S3        30.14S
TOPEKA BILLARD PTCLDY    51  48  89 CALM      30.12F
TOPEKA FORBES  PTCLDY    52  50  93 CALM      30.12F FOG
$$




USA.gov is the U.S. government's official web portal to all federal, state and local government web resources and services.